| time (UTC) | temp C | wind direction | speed KPH | gust KPH | rain 1hr cm | rain 24hr cm | rain mn cm | humidity % | barometer mb |
| 20260505101505 | 13 | 258 | 3.2 | 4.8 | 0.00 | 0.00 | 0.00 | 74 | 1022.1 |
| 20260505100005 | 13 | 285 | 1.6 | 4.8 | 0.00 | 0.00 | 0.00 | 73 | 1022.1 |
| 20260505094502 | 13 | 293 | 1.6 | 4.8 | 0.00 | 0.00 | 0.00 | 73 | 1022.1 |
| 20260505093002 | 13 | 266 | 3.2 | 8.0 | 0.00 | 0.00 | 0.00 | 72 | 1022.2 |
| 20260505091500 | 13 | 267 | 0.0 | 6.4 | 0.00 | 0.00 | 0.00 | 72 | 1022.2 |
| 20260505090107 | 13 | 262 | 1.6 | 4.8 | 0.00 | 0.00 | 0.00 | 71 | 1022.0 |
| 20260505084558 | 13 | 271 | 1.6 | 6.4 | 0.00 | 0.00 | 0.00 | 71 | 1021.9 |
| 20260505083101 | 13 | 275 | 1.6 | 8.0 | 0.00 | 0.00 | 0.00 | 70 | 1021.7 |
| 20260505081557 | 13 | 277 | 4.8 | 9.7 | 0.00 | 0.00 | 0.00 | 70 | 1021.4 |
| 20260505080055 | 13 | 274 | 3.2 | 9.7 | 0.00 | 0.00 | 0.00 | 70 | 1021.3 |
| 20260505074551 | 14 | 264 | 6.4 | 14.5 | 0.00 | 0.00 | 0.00 | 69 | 1021.2 |
| 20260505073051 | 14 | 263 | 6.4 | 14.5 | 0.00 | 0.00 | 0.00 | 68 | 1020.9 |
| 20260505071547 | 15 | 271 | 6.4 | 14.5 | 0.00 | 0.00 | 0.00 | 68 | 1020.8 |
| 20260505070046 | 15 | 293 | 9.7 | 19.3 | 0.00 | 0.00 | 0.00 | 67 | 1020.7 |
| 20260505064544 | 15 | 266 | 4.8 | 14.5 | 0.00 | 0.00 | 0.00 | 67 | 1020.6 |
| 20260505063043 | 15 | 276 | 8.0 | 16.1 | 0.00 | 0.00 | 0.00 | 66 | 1020.4 |
| 20260505061546 | 15 | 248 | 6.4 | 12.9 | 0.00 | 0.00 | 0.00 | 67 | 1020.4 |
| 20260505060040 | 15 | 272 | 6.4 | 16.1 | 0.00 | 0.00 | 0.00 | 67 | 1020.3 |
| 20260505054541 | 15 | 283 | 6.4 | 16.1 | 0.00 | 0.00 | 0.00 | 70 | 1020.2 |
| 20260505053044 | 15 | 248 | 3.2 | 11.3 | 0.00 | 0.00 | 0.00 | 71 | 1020.0 |
| 20260505051536 | 15 | 263 | 0.0 | 4.8 | 0.00 | 0.00 | 0.00 | 71 | 1019.9 |
| 20260505041525 | 14 | 238 | 6.4 | 19.3 | 0.00 | 0.00 | 0.00 | 70 | 1019.5 |
| 20260505040024 | 14 | 262 | 3.2 | 17.7 | 0.00 | 0.00 | 0.00 | 72 | 1019.5 |
| 20260505034523 | 14 | 274 | 12.9 | 27.4 | 0.00 | 0.00 | 0.00 | 70 | 1019.4 |
| 20260505033025 | 14 | 274 | 14.5 | 24.1 | 0.00 | 0.00 | 0.00 | 69 | 1019.4 |
| 20260505031521 | 14 | 285 | 11.3 | 24.1 | 0.00 | 0.00 | 0.00 | 70 | 1019.4 |
| 20260505030027 | 14 | 267 | 8.0 | 20.9 | 0.00 | 0.00 | 0.00 | 69 | 1019.5 |
| 20260505024520 | 14 | 271 | 8.0 | 24.1 | 0.00 | 0.00 | 0.00 | 68 | 1019.5 |
| 20260505023021 | 14 | 257 | 16.1 | 30.6 | 0.00 | 0.00 | 0.00 | 66 | 1019.5 |
| 20260505021518 | 14 | 251 | 8.0 | 24.1 | 0.00 | 0.00 | 0.00 | 66 | 1019.7 |
| 20260505020017 | 14 | 264 | 6.4 | 25.7 | 0.00 | 0.00 | 0.00 | 65 | 1019.9 |
| 20260505014516 | 14 | 319 | 6.4 | 24.1 | 0.00 | 0.00 | 0.00 | 65 | 1019.8 |
| 20260505013013 | 14 | 256 | 9.7 | 24.1 | 0.00 | 0.00 | 0.00 | 64 | 1019.9 |
| 20260505011514 | 14 | 231 | 8.0 | 24.1 | 0.00 | 0.00 | 0.00 | 65 | 1019.9 |
| 20260505010008 | 14 | 269 | 11.3 | 25.7 | 0.00 | 0.00 | 0.00 | 65 | 1019.9 |
| 20260505004518 | 13 | 283 | 9.7 | 27.4 | 0.00 | 0.00 | 0.00 | 65 | 1019.8 |
| 20260505003003 | 13 | 275 | 16.1 | 32.2 | 0.00 | 0.00 | 0.00 | 67 | 1019.8 |
| 20260505001600 | 13 | 287 | 11.3 | 32.2 | 0.00 | 0.00 | 0.00 | 70 | 1019.7 |
| 20260504234615 | 13 | 271 | 16.1 | 37.0 | 0.00 | 0.00 | 0.00 | 70 | 1019.4 |
| 20260504233053 | 13 | 267 | 16.1 | 37.0 | 0.00 | 0.00 | 0.00 | 70 | 1019.2 |
| 20260504231555 | 12 | 287 | 20.9 | 32.2 | 0.00 | 0.00 | 0.00 | 72 | 1019.1 |
| 20260504230047 | 12 | 224 | 14.5 | 29.0 | 0.00 | 0.00 | 0.00 | 76 | 1018.9 |
| 20260504224546 | 12 | 262 | 14.5 | 30.6 | 0.00 | 0.00 | 0.00 | 77 | 1018.9 |
| 20260504223043 | 12 | 254 | 12.9 | 29.0 | 0.00 | 0.00 | 0.00 | 79 | 1018.6 |
| 20260504221544 | 11 | 266 | 9.7 | 24.1 | 0.00 | 0.00 | 0.00 | 81 | 1018.4 |
| 20260504220038 | 11 | 269 | 11.3 | 24.1 | 0.00 | 0.00 | 0.00 | 83 | 1018.2 |
| 20260504214538 | 11 | 290 | 14.5 | 24.1 | 0.00 | 0.00 | 0.00 | 85 | 1017.5 |
| 20260504213031 | 11 | 260 | 12.9 | 22.5 | 0.00 | 0.00 | 0.00 | 85 | 1017.3 |
| 20260504211526 | 11 | 260 | 11.3 | 22.5 | 0.00 | 0.00 | 0.00 | 85 | 1017.1 |
| 20260504210023 | 11 | 285 | 9.7 | 22.5 | 0.00 | 0.00 | 0.00 | 85 | 1016.9 |
| 20260504204544 | 11 | 269 | 12.9 | 25.7 | 0.00 | 0.00 | 0.00 | 85 | 1016.6 |
| 20260504203016 | 11 | 298 | 14.5 | 25.7 | 0.00 | 0.00 | 0.00 | 85 | 1016.4 |
| 20260504201513 | 11 | 272 | 8.0 | 19.3 | 0.00 | 0.00 | 0.00 | 85 | 1016.2 |
| 20260504200014 | 11 | 256 | 11.3 | 25.7 | 0.00 | 0.00 | 0.00 | 85 | 1016.1 |
| 20260504194510 | 11 | 276 | 11.3 | 24.1 | 0.00 | 0.00 | 0.00 | 84 | 1015.9 |
| 20260504193012 | 12 | 262 | 14.5 | 25.7 | 0.00 | 0.00 | 0.00 | 84 | 1015.8 |
| 20260504191502 | 12 | 279 | 14.5 | 29.0 | 0.00 | 0.00 | 0.00 | 84 | 1015.5 |
| 20260504184605 | 11 | 233 | 11.3 | 20.9 | 0.00 | 0.00 | 0.00 | 85 | 1015.1 |
| 20260504183100 | 11 | 241 | 8.0 | 20.9 | 0.00 | 0.00 | 0.00 | 85 | 1015.0 |
| 20260504181554 | 12 | 255 | 11.3 | 27.4 | 0.00 | 0.00 | 0.00 | 85 | 1014.8 |
| 20260504180052 | 11 | 264 | 11.3 | 22.5 | 0.00 | 0.00 | 0.00 | 85 | 1014.7 |
| 20260504174552 | 12 | 307 | 12.9 | 27.4 | 0.00 | 0.00 | 0.00 | 84 | 1014.6 |
| 20260504173048 | 12 | 278 | 12.9 | 29.0 | 0.00 | 0.00 | 0.00 | 83 | 1014.5 |
| 20260504171548 | 12 | 270 | 11.3 | 22.5 | 0.00 | 0.00 | 0.00 | 83 | 1014.3 |